User: anonymous   Login
Location: Hurecourt
(47.9030°N, 6.0653°E)
Time: 01:05:24
(UTC+00:00)
Language:

SL-16 R/B - Orbit

View from above orbital plane
View from above orbital plane
View from above satellite
View from above satellite

Ground track
Ground track

The orbit data is extracted from the following two-line orbital elements,

1 27006U 01056F   20272.63268647 -.00000050  00000-0 -60081-5 0  9999
2 27006  99.4883  42.6371 0015412  74.8055 297.1703 13.70964592940854
Epoch (UTC): 28 September 2020 15:11:04
Eccentricity: 0.0015412
inclination: 99.4883°
perigee height: 985 km
apogee height: 1007 km
right ascension of ascending node: 42.6371°
argument of perigee: 74.8055°
revolutions per day: 13.70964592
mean anomaly at epoch: 297.1703°
orbit number at epoch: 94085

The dashed part of the orbit path shows where the satellite is in the earth's shadow,  

DLR